• In Portugal
  • List of Countries
  • For 7 days
  • Water Temperature
  • Satellite Maps
  • Weather Map
  • Weather Widgets
  • user-avatar
    Login

    Hourly Weather Kotowina

    Today, 18 October, Thursday

    Time Temperature Precipitation Wind Pressure Humidity
    00:00 +12°C° 0 mm 2 mps 753 mmHg 67%
    01:00 +10°C° 0 mm 2 mps 753 mmHg 70%
    02:00 +9°C° 0 mm 2 mps 752 mmHg 75%
    03:00 +9°C° 0 mm 2 mps 752 mmHg 78%
    04:00 +9°C° 0 mm 2 mps 752 mmHg 81%
    05:00 +9°C° 0 mm 2 mps 752 mmHg 83%
    06:00 +9°C° 0 mm 2 mps 751 mmHg 84%
    07:00 +9°C° 0 mm 2 mps 751 mmHg 84%
    08:00 +9°C° 0 mm 2 mps 751 mmHg 83%
    09:00 +12°C° 0 mm 2 mps 751 mmHg 76%
    10:00 +14°C° 0 mm 2 mps 751 mmHg 68%
    11:00 +16°C° 0 mm 2 mps 751 mmHg 61%
    12:00 +17°C° 0 mm 2 mps 751 mmHg 56%
    13:00 +18°C° 0 mm 2 mps 750 mmHg 52%
    14:00 +20°C° 0 mm 1 mps 750 mmHg 48%
    15:00 +19°C° 0 mm 1 mps 750 mmHg 52%
    16:00 +18°C° 0 mm 1 mps 750 mmHg 56%
    17:00 +16°C° 0 mm 1 mps 750 mmHg 60%
    18:00 +15°C° 0 mm 1 mps 750 mmHg 63%
    19:00 +14°C° 0 mm 1 mps 750 mmHg 66%
    20:00 +13°C° 0 mm 1 mps 750 mmHg 68%
    21:00 +13°C° 0 mm 1 mps 750 mmHg 70%
    22:00 +12°C° 0 mm 1 mps 750 mmHg 71%
    23:00 +12°C° 0 mm 1 mps 750 mmHg 72%

    Tomorrow, 19 October, Friday

    Time Temperature Precipitation Wind Pressure Humidity
    00:00 +12°C° 0 mm 1 mps 750 mmHg 74%
    01:00 +11°C° 0 mm 1 mps 750 mmHg 76%
    02:00 +11°C° 0 mm 1 mps 750 mmHg 78%
    03:00 +10°C° 0 mm 1 mps 750 mmHg 80%
    04:00 +9°C° 0 mm 2 mps 750 mmHg 83%
    05:00 +9°C° 0 mm 2 mps 750 mmHg 85%
    06:00 +9°C° 0 mm 2 mps 751 mmHg 87%
    07:00 +8°C° 0 mm 2 mps 751 mmHg 88%
    08:00 +8°C° 0 mm 2 mps 751 mmHg 90%
    09:00 +10°C° 0 mm 2 mps 751 mmHg 85%
    10:00 +12°C° 0 mm 2 mps 752 mmHg 79%
    11:00 +13°C° 0 mm 3 mps 752 mmHg 74%
    12:00 +13°C° 0 mm 3 mps 752 mmHg 74%
    13:00 +13°C° 0 mm 3 mps 752 mmHg 73%
    14:00 +13°C° 0 mm 3 mps 752 mmHg 72%
    15:00 +13°C° 0 mm 3 mps 752 mmHg 75%
    16:00 +13°C° 0 mm 2 mps 752 mmHg 77%
    17:00 +12°C° 0 mm 2 mps 752 mmHg 80%
    18:00 +10°C° 0 mm 2 mps 753 mmHg 82%
    19:00 +9°C° 0 mm 2 mps 753 mmHg 84%
    20:00 +9°C° 0 mm 1 mps 753 mmHg 86%
    21:00 +9°C° 0 mm 1 mps 754 mmHg 88%
    22:00 +8°C° 0 mm 1 mps 754 mmHg 89%
    23:00 +7°C° 0 mm 1 mps 754 mmHg 90%

    Day after tomorrow, 20 October, Saturday

    Time Temperature Precipitation Wind Pressure Humidity
    00:00 +7°C° 0 mm 1 mps 754 mmHg 91%
    01:00 +7°C° 0 mm 1 mps 754 mmHg 91%
    02:00 +6°C° 0 mm 1 mps 754 mmHg 92%
    03:00 +6°C° 0 mm 1 mps 754 mmHg 92%
    04:00 +6°C° 0 mm 1 mps 754 mmHg 93%
    05:00 +6°C° 0 mm 1 mps 754 mmHg 93%
    06:00 +6°C° 0 mm 1 mps 754 mmHg 93%
    07:00 +6°C° 0 mm 1 mps 754 mmHg 92%
    08:00 +5°C° 0 mm 2 mps 754 mmHg 92%
    09:00 +7°C° 0 mm 2 mps 754 mmHg 84%
    10:00 +8°C° 0 mm 2 mps 755 mmHg 76%
    11:00 +10°C° 0 mm 3 mps 755 mmHg 69%
    12:00 +11°C° 0 mm 3 mps 754 mmHg 67%
    13:00 +11°C° 0 mm 4 mps 754 mmHg 65%
    14:00 +12°C° 0 mm 4 mps 754 mmHg 63%
    15:00 +11°C° 0 mm 4 mps 754 mmHg 67%
    16:00 +11°C° 0 mm 4 mps 754 mmHg 71%
    17:00 +10°C° 0 mm 4 mps 753 mmHg 76%
    18:00 +8°C° 0.1 mm 4 mps 753 mmHg 77%
    19:00 +8°C° 0.1 mm 4 mps 753 mmHg 79%
    20:00 +7°C° 0.1 mm 4 mps 753 mmHg 81%
    21:00 +7°C° 0.1 mm 4 mps 753 mmHg 83%
    22:00 +7°C° 0.1 mm 4 mps 753 mmHg 85%
    23:00 +7°C° 0.1 mm 4 mps 753 mmHg 87%

    21 October, Sunday

    Time Temperature Precipitation Wind Pressure Humidity
    00:00 +6°C° 0 mm 4 mps 753 mmHg 89%
    01:00 +6°C° 0 mm 4 mps 753 mmHg 91%
    02:00 +5°C° 0 mm 3 mps 753 mmHg 94%
    03:00 +5°C° 0 mm 3 mps 753 mmHg 94%
    04:00 +5°C° 0 mm 3 mps 753 mmHg 94%
    05:00 +4°C° 0 mm 3 mps 753 mmHg 94%
    06:00 +4°C° 0 mm 3 mps 753 mmHg 92%
    07:00 +5°C° 0 mm 3 mps 754 mmHg 90%
    08:00 +5°C° 0 mm 3 mps 754 mmHg 88%
    09:00 +6°C° 0 mm 4 mps 754 mmHg 80%
    10:00 +7°C° 0 mm 4 mps 754 mmHg 73%
    11:00 +9°C° 0 mm 5 mps 754 mmHg 65%
    12:00 +9°C° 0 mm 5 mps 754 mmHg 63%
    13:00 +10°C° 0 mm 4 mps 754 mmHg 61%
    14:00 +11°C° 0 mm 4 mps 754 mmHg 59%
    15:00 +10°C° 0 mm 3 mps 754 mmHg 63%
    16:00 +9°C° 0 mm 2 mps 754 mmHg 67%
    17:00 +9°C° 0 mm 2 mps 754 mmHg 71%
    18:00 +9°C° 0 mm 1 mps 754 mmHg 76%
    19:00 +8°C° 0 mm 1 mps 754 mmHg 80%
    20:00 +7°C° 0 mm 1 mps 755 mmHg 84%
    21:00 +7°C° 0 mm 1 mps 755 mmHg 85%
    22:00 +6°C° 0 mm 1 mps 754 mmHg 86%
    23:00 +6°C° 0 mm 1 mps 754 mmHg 87%

    22 October, Monday

    Time Temperature Precipitation Wind Pressure Humidity
    00:00 +5°C° 0 mm 2 mps 754 mmHg 88%
    01:00 +5°C° 0 mm 2 mps 754 mmHg 88%
    02:00 +5°C° 0 mm 2 mps 754 mmHg 89%
    03:00 +4°C° 0 mm 3 mps 754 mmHg 88%
    04:00 +4°C° 0 mm 3 mps 753 mmHg 87%
    05:00 +4°C° 0 mm 3 mps 753 mmHg 86%
    06:00 +5°C° 0 mm 4 mps 753 mmHg 84%
    07:00 +5°C° 0 mm 4 mps 753 mmHg 82%
    08:00 +6°C° 0 mm 5 mps 752 mmHg 80%
    09:00 +7°C° 0.1 mm 5 mps 752 mmHg 79%
    10:00 +7°C° 0.1 mm 5 mps 752 mmHg 78%
    11:00 +8°C° 0.1 mm 5 mps 752 mmHg 77%
    12:00 +8°C° 0.9 mm 5 mps 751 mmHg 80%
    13:00 +8°C° 0.9 mm 5 mps 751 mmHg 84%
    14:00 +8°C° 0.9 mm 5 mps 751 mmHg 88%
    15:00 +8°C° 0.8 mm 5 mps 751 mmHg 88%
    16:00 +8°C° 0.8 mm 4 mps 751 mmHg 89%
    17:00 +8°C° 0.8 mm 3 mps 751 mmHg 90%
    18:00 +8°C° 0.2 mm 3 mps 751 mmHg 87%
    19:00 +7°C° 0.2 mm 3 mps 751 mmHg 85%
    20:00 +7°C° 0.2 mm 3 mps 751 mmHg 83%
    21:00 +6°C° 0 mm 2 mps 751 mmHg 82%
    22:00 +6°C° 0 mm 2 mps 751 mmHg 82%
    23:00 +5°C° 0 mm 2 mps 750 mmHg 81%

    23 October, Tuesday

    Time Temperature Precipitation Wind Pressure Humidity
    00:00 +5°C° 0 mm 2 mps 750 mmHg 82%
    01:00 +5°C° 0 mm 2 mps 750 mmHg 83%
    02:00 +5°C° 0 mm 2 mps 750 mmHg 84%
    03:00 +4°C° 0 mm 2 mps 749 mmHg 85%
    04:00 +4°C° 0 mm 2 mps 749 mmHg 87%
    05:00 +4°C° 0 mm 2 mps 748 mmHg 89%
    06:00 +4°C° 0 mm 2 mps 748 mmHg 90%
    07:00 +4°C° 0 mm 2 mps 747 mmHg 90%
    08:00 +4°C° 0 mm 2 mps 747 mmHg 91%
    09:00 +4°C° 0 mm 3 mps 746 mmHg 87%
    10:00 +7°C° 0 mm 3 mps 746 mmHg 82%
    11:00 +8°C° 0 mm 3 mps 746 mmHg 77%
    12:00 +8°C° 0.1 mm 3 mps 745 mmHg 75%
    13:00 +9°C° 0.1 mm 3 mps 745 mmHg 72%
    14:00 +9°C° 0.1 mm 3 mps 744 mmHg 69%
    15:00 +8°C° 0.1 mm 2 mps 744 mmHg 73%
    16:00 +8°C° 0.1 mm 2 mps 743 mmHg 76%
    17:00 +7°C° 0.1 mm 2 mps 743 mmHg 79%
    18:00 +6°C° 0 mm 2 mps 743 mmHg 82%
    19:00 +6°C° 0 mm 2 mps 742 mmHg 85%
    20:00 +5°C° 0 mm 2 mps 742 mmHg 89%
    21:00 +5°C° 0 mm 2 mps 742 mmHg 89%
    22:00 +4°C° 0 mm 2 mps 742 mmHg 90%
    23:00 +5°C° 0 mm 1 mps 742 mmHg 91%
    Show more